DW4509 Carlton UK current weather conditions

sailwx.info

Wind from 255 at 7 knots gusting 7

Air temperature 16.7° C
Dewpoint 10.5° C

Last reported at 2019-Jun-20 10:03 UTC.
Time now 2019-Jun-20 11:10 UTC

Location: N 53°21' W 001°07'.
View on Google Maps.

See reports from other nearby stations

  
Tides and Currents Weather Stations Pressure Air Temp Water Temp Dewpoint Dewpoint Depression Visibility Wind Speed Wind Dir Waves Ship Positions
date/time (UTC)wind fromknots sea level pressurealtimeterstation pressurevisibilityair tempwater tempwave heightnotes
2019-Jun-20 10:03 255 7 gusting 7 16.7
2019-Jun-20 09:53 349 1 gusting 5 16.7
2019-Jun-20 09:43 290 2 gusting 4 16.1
2019-Jun-20 09:33 264 16.1
2019-Jun-20 09:23 278 0 gusting 5 15.6
2019-Jun-20 09:13 245 0 gusting 4 15.6
2019-Jun-20 09:03 271 15.6
2019-Jun-20 08:53 056 0 gusting 5 16.1
2019-Jun-20 08:43 098 3 gusting 4 16.1
2019-Jun-20 08:33 355 2 gusting 6 16.1
2019-Jun-20 08:23 338 0 gusting 5 15.6
2019-Jun-20 08:13 289 1 gusting 1 15.6
2019-Jun-20 08:03 221 14.4
2019-Jun-20 07:53 134 0 gusting 2 13.9
2019-Jun-20 07:43 236 13.3
2019-Jun-20 07:33 278 0 gusting 1 13.3
2019-Jun-20 07:23 322 13.3
2019-Jun-20 07:13 036 13.3
2019-Jun-20 07:03 229 13.3
2019-Jun-20 06:53 053 13.3
2019-Jun-20 06:43 288 0 gusting 3 13.9
2019-Jun-20 06:33 060 14.4
2019-Jun-20 06:23 256 1 gusting 3 13.9
2019-Jun-20 06:13 350 13.3
2019-Jun-20 06:03 239 12.8
2019-Jun-20 05:53 279 11.7
2019-Jun-20 05:43 295 11.7
2019-Jun-20 05:33 309 11.1
2019-Jun-20 05:23 299 10.6
2019-Jun-20 05:13 244 9.4
2019-Jun-20 05:03 244 8.9
2019-Jun-20 04:53 244 8.3
2019-Jun-20 04:43 244 8.3
2019-Jun-20 04:33 244 8.3
2019-Jun-20 04:23 244 8.3
2019-Jun-20 04:13 244 7.8
2019-Jun-20 04:03 244 7.8
2019-Jun-20 03:53 244 7.8
2019-Jun-20 03:43 244 8.3
2019-Jun-20 03:33 244 8.3
2019-Jun-20 03:23 244 8.3
2019-Jun-20 03:13 244 8.3
2019-Jun-20 03:03 244 8.3
2019-Jun-20 02:53 244 8.3
2019-Jun-20 02:43 245 8.3
2019-Jun-20 02:33 244 8.9
2019-Jun-20 02:23 244 8.9
2019-Jun-20 02:13 244 8.9
2019-Jun-20 02:03 244 8.9
2019-Jun-20 01:53 244 9.4
2019-Jun-20 01:43 244 9.4
2019-Jun-20 01:33 244 9.4
2019-Jun-20 01:23 244 10.0
2019-Jun-20 01:13 244 10.0
2019-Jun-20 01:03 244 10.0
2019-Jun-20 00:53 114 10.0
2019-Jun-20 00:43 237 10.0
2019-Jun-20 00:33 252 10.0
2019-Jun-20 00:23 252 10.6
2019-Jun-20 00:13 252 10.0
2019-Jun-20 00:03 252 10.6
2019-Jun-19 23:53 252 11.1
2019-Jun-19 23:43 252 11.1
2019-Jun-19 23:33 252 11.1
2019-Jun-19 23:23 252 11.7
2019-Jun-19 23:13 252 11.7
2019-Jun-19 23:03 252 12.2
2019-Jun-19 22:53 252 12.2
2019-Jun-19 22:43 252 12.8
2019-Jun-19 22:33 252 13.3
2019-Jun-19 22:23 252 13.3
2019-Jun-19 22:13 252 13.3
2019-Jun-19 22:03 252 13.3
2019-Jun-19 21:53 252 13.9
2019-Jun-19 21:43 252 13.9
2019-Jun-19 21:33 252 13.9
2019-Jun-19 21:23 252 13.9
2019-Jun-19 21:13 252 13.9
2019-Jun-19 21:03 252 14.4
2019-Jun-19 20:53 252 14.4
2019-Jun-19 20:43 252 14.4
2019-Jun-19 20:33 252 15.0
2019-Jun-19 20:23 252 15.0
2019-Jun-19 20:13 252 15.6
2019-Jun-19 20:03 239 15.6
2019-Jun-19 19:53 239 15.6
2019-Jun-19 19:43 245 15.6
2019-Jun-19 19:33 277 15.6
2019-Jun-19 19:23 275 0 gusting 1 16.1
2019-Jun-19 19:13 231 16.1
2019-Jun-19 19:03 257 2 gusting 2 16.7
2019-Jun-19 18:53 225 17.2
2019-Jun-19 18:43 256 0 gusting 1 17.2
2019-Jun-19 18:33 103 17.8
2019-Jun-19 18:23 264 1 gusting 4 17.8
2019-Jun-19 18:13 274 1 gusting 4 17.8
2019-Jun-19 18:03 119 17.2
2019-Jun-19 17:53 011 17.2
2019-Jun-19 17:43 011 17.2
2019-Jun-19 17:33 011 17.8
2019-Jun-19 17:23 011 17.8
2019-Jun-19 17:13 011 18.3
2019-Jun-19 17:03 011 18.9
2019-Jun-19 16:53 011 19.4
2019-Jun-19 16:43 011 20.0
2019-Jun-19 16:33 011 0 gusting 1 20.0
2019-Jun-19 16:23 122 20.0
2019-Jun-19 16:13 055 20.0
2019-Jun-19 16:03 053 20.6
2019-Jun-19 15:53 065 20.0
2019-Jun-19 15:43 350 0 gusting 2 19.4
2019-Jun-19 15:33 120 0 gusting 2 18.9
2019-Jun-19 15:23 084 0 gusting 2 18.9
2019-Jun-19 15:13 089 1 gusting 2 19.4
2019-Jun-19 15:03 073 0 gusting 2 19.4
2019-Jun-19 14:53 098 0 gusting 3 18.9
2019-Jun-19 14:43 086 0 gusting 3 19.4
2019-Jun-19 14:33 011 0 gusting 5 19.4
2019-Jun-19 14:23 074 1 gusting 5 18.9
2019-Jun-19 14:13 113 1 gusting 4 18.9
2019-Jun-19 14:03 229 0 gusting 2 18.9
2019-Jun-19 13:53 020 17.8
2019-Jun-19 13:43 013 17.2
2019-Jun-19 13:33 063 17.2
2019-Jun-19 13:23 053 17.2
2019-Jun-19 13:13 082 1 gusting 4 16.7
2019-Jun-19 13:03 262 17.2
2019-Jun-19 12:53 090 1 gusting 3 17.2
2019-Jun-19 12:43 270 2 gusting 5 17.2
2019-Jun-19 12:33 321 17.2
2019-Jun-19 12:23 096 2 gusting 3 17.2
2019-Jun-19 12:13 075 16.7
2019-Jun-19 12:03 314 16.7
2019-Jun-19 11:53 225 0 gusting 5 16.7
2019-Jun-19 11:43 033 0 gusting 3 16.7
2019-Jun-19 11:33 007 1 gusting 4 16.1
2019-Jun-19 11:23 089 0 gusting 4 16.1
2019-Jun-19 11:13 090 4 gusting 5 16.1
2019-Jun-19 11:03 255 0 gusting 3 15.6
2019-Jun-19 10:53 022 0 gusting 4 15.6
2019-Jun-19 10:43 266 0 gusting 5 15.0
2019-Jun-19 10:33 068 0 gusting 4 15.0
2019-Jun-19 10:23 053 1 gusting 4 14.4
2019-Jun-19 10:13 131 14.4
2019-Jun-19 10:03 242 14.4
2019-Jun-19 09:53 027 14.4
2019-Jun-19 09:43 057 13.9
2019-Jun-19 09:33 289 13.3
2019-Jun-19 09:23 326 13.3
2019-Jun-19 09:13 072 14.4
2019-Jun-19 09:03 063 1 gusting 1 15.6
2019-Jun-19 08:53 315 15.6
2019-Jun-19 08:43 315 15.6
2019-Jun-19 08:33 315 15.0
2019-Jun-19 08:23 315 15.0
2019-Jun-19 08:13 315 15.0
2019-Jun-19 08:03 315 15.0
2019-Jun-19 07:53 071 15.0
2019-Jun-19 07:43 071 14.4
2019-Jun-19 07:33 072 14.4
2019-Jun-19 07:23 071 14.4
2019-Jun-19 07:13 071 14.4
2019-Jun-19 07:03 071 14.4
2019-Jun-19 06:53 072 14.4
2019-Jun-19 06:43 071 14.4
2019-Jun-19 06:33 072 14.4
2019-Jun-19 06:23 071 13.9
2019-Jun-19 06:13 071 13.9
2019-Jun-19 06:03 072 13.9
2019-Jun-19 05:53 072 13.9
2019-Jun-19 05:43 071 13.9
2019-Jun-19 05:33 072 13.9
2019-Jun-19 05:23 071 13.9
2019-Jun-19 05:13 071 13.9
2019-Jun-19 05:03 071 13.9
2019-Jun-19 04:53 071 13.9
2019-Jun-19 04:43 071 13.9
2019-Jun-19 04:33 071 13.9
2019-Jun-19 04:23 071 13.9
2019-Jun-19 04:13 071 13.9
2019-Jun-19 04:03 078 13.9
2019-Jun-19 03:53 079 13.9
2019-Jun-19 03:43 079 13.9
2019-Jun-19 03:33 059 13.9
2019-Jun-19 03:23 044 13.9
2019-Jun-19 03:13 085 13.9
2019-Jun-19 03:03 328 13.9
2019-Jun-19 02:53 328 13.9
2019-Jun-19 02:43 328 13.9
2019-Jun-19 02:33 328 13.9
2019-Jun-19 02:23 328 13.9
2019-Jun-19 02:13 328 13.9
2019-Jun-19 02:03 328 13.9
2019-Jun-19 01:53 328 13.9
2019-Jun-19 01:43 328 13.9
2019-Jun-19 01:33 328 13.9
2019-Jun-19 01:23 328 13.9
2019-Jun-19 01:13 328 13.9
2019-Jun-19 01:03 328 13.9
2019-Jun-19 00:53 328 13.9
2019-Jun-19 00:43 328 13.9
2019-Jun-19 00:33 328 13.9
2019-Jun-19 00:23 328 13.9
2019-Jun-19 00:13 328 13.9
2019-Jun-19 00:03 328 13.9
2019-Jun-18 23:53 328 13.9
2019-Jun-18 23:43 328 13.9
2019-Jun-18 23:33 328 13.3
2019-Jun-18 23:23 328 13.3
2019-Jun-18 23:13 328 13.3
2019-Jun-18 23:03 328 13.3
2019-Jun-18 22:53 328 13.3
2019-Jun-18 22:43 328 13.3
2019-Jun-18 22:33 328 13.3
2019-Jun-18 22:23 328 13.3
2019-Jun-18 22:13 328 13.3
2019-Jun-18 22:03 328 13.3
2019-Jun-18 21:53 328 13.3
2019-Jun-18 21:43 328 13.9
2019-Jun-18 21:13 328 13.9
2019-Jun-18 21:03 328 13.9
2019-Jun-18 20:53 328 13.9
2019-Jun-18 20:43 328 13.9
2019-Jun-18 20:33 328 13.9
2019-Jun-18 20:23 328 14.4
2019-Jun-18 20:13 328 14.4
2019-Jun-18 20:03 328 14.4
2019-Jun-18 19:53 328 14.4
2019-Jun-18 19:43 328 14.4
2019-Jun-18 19:33 317 15.0
2019-Jun-18 19:23 317 15.0
2019-Jun-18 19:13 317 15.0
2019-Jun-18 19:03 283 15.6
2019-Jun-18 18:53 283 15.6
2019-Jun-18 18:43 283 15.6
2019-Jun-18 18:33 243 16.1
2019-Jun-18 18:23 094 16.7
2019-Jun-18 18:13 206 17.2
2019-Jun-18 18:03 268 17.2
2019-Jun-18 17:53 327 17.8
2019-Jun-18 17:43 053 17.8
2019-Jun-18 17:33 013 18.3
2019-Jun-18 17:23 013 18.3
2019-Jun-18 17:13 013 18.9
2019-Jun-18 17:03 013 18.9
2019-Jun-18 16:53 013 19.4
2019-Jun-18 16:43 013 20.0
2019-Jun-18 16:33 013 20.0
2019-Jun-18 16:23 032 20.0
2019-Jun-18 16:13 034 20.6
2019-Jun-18 16:03 283 20.6
2019-Jun-18 15:53 264 20.6
2019-Jun-18 15:43 020 20.6
2019-Jun-18 15:33 092 20.6
2019-Jun-18 15:23 071 0 gusting 2 20.0
2019-Jun-18 15:13 329 20.0
2019-Jun-18 15:03 031 20.0
2019-Jun-18 14:53 213 0 gusting 2 20.0
2019-Jun-18 14:43 081 20.0
2019-Jun-18 14:33 007 18.9
2019-Jun-18 14:23 297 18.9
2019-Jun-18 14:13 356 18.9
2019-Jun-18 14:03 033 18.9
2019-Jun-18 13:53 098 19.4
2019-Jun-18 13:43 356 19.4
2019-Jun-18 13:33 342 20.0
2019-Jun-18 13:23 120 20.0
2019-Jun-18 13:13 311 20.0
2019-Jun-18 13:03 048 20.0
2019-Jun-18 12:53 150 20.0
2019-Jun-18 12:43 049 20.0
2019-Jun-18 12:33 255 0 gusting 1 20.0
2019-Jun-18 12:23 135 20.0
2019-Jun-18 12:13 069 20.0
2019-Jun-18 12:03 226 20.0
2019-Jun-18 11:54 025 2 gusting 3 19.4
2019-Jun-18 11:23 079 20.0
2019-Jun-18 11:13 290 20.0
2019-Jun-18 11:04 072 0 gusting 3 20.6